Weather History for Danville, VA

Change the Weather History Date:

Tuesday, November 9, 2010

  Actual Average Record
Temperature  
Mean Temperature 55 °F 52 °F  
Max Temperature 74 °F 63 °F 82 °F (1975)
Min Temperature 36 °F 40 °F 21 °F (1967)
Degree Days  
Heating Degree Days 10 13  
Month to date heating degree days 156 109  
Since 1 July heating degree days 312 342  
Cooling Degree Days 0 0  
Month to date cooling degree days 0 0  
Year to date cooling degree days 1946 1436  
Growing Degree Days 5 (Base 50)    
Moisture  
Dew Point 35 °F    
Average Humidity 53    
Maximum Humidity 85    
Minimum Humidity 20    
Precipitation  
Precipitation 0.00 in 0.13 in 0.53 in (1996)
Month to date precipitation 0.58 1.11  
Year to date precipitation 37.94 38.89  
Snow  
Snow 0.00 in - - ()
Month to date snowfall 0.0  
Since 1 July snowfall 0.0  
Since 1 September snowfall 0.0  
Snow Depth 0.00 in    
Sea Level Pressure  
Sea Level Pressure 29.94 in    
Wind  
Wind Speed 4 mph (WNW)    
Max Wind Speed 17 mph    
Max Gust Speed 23 mph    
Visibility 10 miles    
Events      
T = Trace of Precipitation, MM = Missing Value Source: NWS Daily Summary

Daily Weather History Graph

Daily Weather History Graph

Search for Another Location

Airport:

Trip Planner

Search our weather history database for the weather conditions in past years. The results will help you decide how hot, cold, wet, or windy it might be!

Date:

Astronomy

Nov. 09, 2010 Rise Set
Actual Time 6:48 AM EST 5:13 PM EST
Civil Twilight 6:21 AM EST 5:40 PM EST
Nautical Twilight 5:50 AM EST 6:11 PM EST
Astronomical Twilight 5:20 AM EST 6:41 PM EST
Moon 10:23 AM EST (11/9) 8:13 PM EST (11/9)
Length of Visible Light 11h 18m
Length of Day
10h 24m
Waxing Crescent, 14% of the Moon is Illuminated
Nov 9
Waxing Crescent
Nov 13
First Quarter
Nov 21
Full
Nov 28
Last Quarter
Dec 5
New

Hourly Weather History & Observations

Time (EST) Temp. Windchill Dew Point Humidity Pressure Visibility Wind Dir Wind Speed Gust Speed Precip Events Conditions
12:53 AM 43.0 °F 39.5 °F 35.1 °F 74% 29.87 in 10.0 mi SW 5.8 mph - N/A   Clear
1:53 AM 51.1 °F - 33.1 °F 50% 29.88 in 10.0 mi WNW 4.6 mph - N/A   Clear
2:53 AM 41.0 °F 39.0 °F 34.0 °F 76% 29.89 in 10.0 mi SW 3.5 mph - N/A   Clear
3:53 AM 39.0 °F 35.7 °F 34.0 °F 82% 29.90 in 10.0 mi NNE 4.6 mph - N/A   Clear
4:53 AM 41.0 °F 39.0 °F 34.0 °F 76% 29.92 in 10.0 mi SW 3.5 mph - N/A   Clear
5:53 AM 37.0 °F - 34.0 °F 89% 29.93 in 10.0 mi Calm Calm - N/A   Clear
6:53 AM 37.9 °F - 33.1 °F 83% 29.96 in 10.0 mi Calm Calm - N/A   Clear
7:53 AM 42.1 °F - 36.0 °F 79% 29.98 in 10.0 mi Calm Calm - N/A   Clear
8:53 AM 50.0 °F - 37.0 °F 61% 29.99 in 10.0 mi SSW 4.6 mph - N/A   Clear
10:53 AM 66.9 °F - 37.9 °F 34% 29.98 in 10.0 mi North 6.9 mph - N/A   Clear
11:53 AM 71.1 °F - 36.0 °F 28% 29.96 in 10.0 mi NNW 12.7 mph 19.6 mph N/A   Clear
12:53 PM 73.0 °F - 33.1 °F 23% 29.94 in 10.0 mi North 8.1 mph - N/A   Clear
1:53 PM 73.0 °F - 30.9 °F 21% 29.92 in 10.0 mi NNW 11.5 mph 19.6 mph N/A   Clear
2:53 PM 73.0 °F - 30.0 °F 20% 29.91 in 10.0 mi NNW 10.4 mph - N/A   Clear
3:53 PM 73.0 °F - 32.0 °F 22% 29.92 in 10.0 mi NNW 8.1 mph - N/A   Clear
4:53 PM 64.0 °F - 39.0 °F 40% 29.93 in 10.0 mi Calm Calm - N/A   Clear
5:53 PM 55.9 °F - 39.0 °F 53% 29.94 in 10.0 mi NE 4.6 mph - N/A   Clear
6:53 PM 51.1 °F - 37.0 °F 59% 29.95 in 10.0 mi SSW 3.5 mph - N/A   Clear
7:53 PM 48.0 °F - 37.0 °F 66% 29.95 in 10.0 mi SW 3.5 mph - N/A   Clear
8:53 PM 45.0 °F - 37.0 °F 74% 29.97 in 10.0 mi Calm Calm - N/A   Clear
9:53 PM 45.0 °F - 37.0 °F 74% 29.99 in 10.0 mi Calm Calm - N/A   Clear
10:53 PM 43.0 °F 41.3 °F 37.0 °F 80% 29.99 in 10.0 mi NNW 3.5 mph - N/A   Clear
11:53 PM 41.0 °F - 36.0 °F 82% 30.01 in 10.0 mi Calm Calm - N/A   Clear